contact: severine.martini@mio.osupytheas.fr, dominique.lefevre@mio.osupytheas.fr
Project:EMSO Ligure-ouest http://www.emso-fr.org/EMSO-France
Sensor Optode, line 4330 Serial 272 
DOI : "https://doi.org/10.17882/97948" 
Title:EMSO Ligure Ouest : Data BathyDock capteur Optode - deploiement "2023-04-28"
Datetime,Profondeur,Latitude,Longitude,optode_type,serial,O2_concentration,O2_saturation,Temperature,Calibrated_Phase,Temp_Compensated_Phase,phase_blue_light,phase_red_light,Amplitude_blue_light,Amplitude_red_light,thermistor_bridge
time,m,degree_north,degree_east,1,1,umol.l-1,%,degree_C,degree,degree,degree,degree,mV,mV,mV
2023-10-09T00:00:08,2420,42.8014,5.9826,4330,272,186.603,57.150,13.309,36.031,36.611,41.202,4.591,295.4,543.1,291.3
2023-10-09T00:03:07,2420,42.8014,5.9826,4330,272,186.708,57.185,13.311,36.023,36.603,41.196,4.593,295.4,543.2,291.2
2023-10-09T00:06:07,2420,42.8014,5.9826,4330,272,186.464,57.110,13.311,36.039,36.619,41.210,4.591,295.4,543.2,291.2
2023-10-09T00:09:07,2420,42.8014,5.9826,4330,272,186.541,57.138,13.314,36.032,36.612,41.207,4.595,295.4,543.2,291.1
2023-10-09T00:12:07,2420,42.8014,5.9826,4330,272,186.560,57.142,13.313,36.031,36.611,41.203,4.591,295.4,543.1,291.1
2023-10-09T00:15:07,2420,42.8014,5.9826,4330,272,186.734,57.200,13.317,36.018,36.598,41.195,4.596,295.4,543.1,291.0
2023-10-09T00:18:07,2420,42.8014,5.9826,4330,272,186.648,57.171,13.314,36.025,36.605,41.200,4.595,295.4,543.1,291.1
2023-10-09T00:21:07,2420,42.8014,5.9826,4330,272,186.597,57.151,13.311,36.030,36.611,41.201,4.591,295.4,543.2,291.2
2023-10-09T00:24:07,2420,42.8014,5.9826,4330,272,186.892,57.242,13.311,36.011,36.591,41.188,4.597,295.3,543.2,291.2
2023-10-09T00:27:07,2420,42.8014,5.9826,4330,272,186.659,57.176,13.316,36.024,36.604,41.197,4.593,295.4,543.1,291.0
2023-10-09T00:30:08,2420,42.8014,5.9826,4330,272,186.665,57.174,13.313,36.024,36.605,41.194,4.590,295.4,543.1,291.1
2023-10-09T00:33:07,2420,42.8014,5.9826,4330,272,186.492,57.126,13.317,36.034,36.615,41.203,4.589,295.4,543.1,291.0
2023-10-09T00:36:07,2420,42.8014,5.9826,4330,272,186.431,57.110,13.319,36.037,36.617,41.214,4.597,295.4,543.0,290.9
2023-10-09T00:39:07,2420,42.8014,5.9826,4330,272,186.568,57.151,13.318,36.029,36.609,41.202,4.593,295.4,543.1,291.0
2023-10-09T00:42:07,2420,42.8014,5.9826,4330,272,186.641,57.166,13.313,36.027,36.607,41.201,4.594,295.5,543.2,291.1
2023-10-09T00:45:07,2420,42.8014,5.9826,4330,272,186.365,57.088,13.318,36.042,36.622,41.216,4.594,295.4,543.1,291.0
2023-10-09T00:48:07,2420,42.8014,5.9826,4330,272,186.673,57.175,13.311,36.025,36.605,41.196,4.590,295.4,543.0,291.2
2023-10-09T00:51:07,2420,42.8014,5.9826,4330,272,186.491,57.118,13.310,36.038,36.618,41.213,4.595,295.5,543.1,291.2
2023-10-09T00:54:07,2420,42.8014,5.9826,4330,272,186.782,57.224,13.324,36.012,36.592,41.185,4.593,295.4,543.1,290.8
2023-10-09T00:57:07,2420,42.8014,5.9826,4330,272,186.530,57.132,13.312,36.034,36.614,41.208,4.594,295.4,543.1,291.2
2023-10-09T01:00:08,2420,42.8014,5.9826,4330,272,186.596,57.151,13.311,36.030,36.610,41.200,4.590,295.4,543.2,291.2
2023-10-09T01:03:07,2420,42.8014,5.9826,4330,272,186.712,57.197,13.319,36.019,36.599,41.197,4.599,295.4,543.1,290.9
2023-10-09T01:06:07,2420,42.8014,5.9826,4330,272,186.799,57.232,13.326,36.010,36.591,41.188,4.597,295.4,543.1,290.7
2023-10-09T01:09:07,2420,42.8014,5.9826,4330,272,186.555,57.150,13.321,36.028,36.608,41.199,4.591,295.4,543.0,290.9
2023-10-09T01:12:07,2420,42.8014,5.9826,4330,272,186.584,57.155,13.318,36.028,36.608,41.199,4.591,295.4,543.1,291.0
2023-10-09T01:15:07,2420,42.8014,5.9826,4330,272,186.644,57.174,13.318,36.024,36.604,41.193,4.589,295.4,543.1,291.0
2023-10-09T01:18:08,2420,42.8014,5.9826,4330,272,186.485,57.139,13.329,36.029,36.609,41.207,4.598,295.5,543.1,290.6
2023-10-09T01:21:08,2420,42.8014,5.9826,4330,272,186.544,57.153,13.326,36.027,36.607,41.202,4.596,295.4,543.1,290.7
2023-10-09T01:24:08,2420,42.8014,5.9826,4330,272,186.591,57.148,13.310,36.031,36.612,41.206,4.594,295.5,543.1,291.2
2023-10-09T01:27:08,2420,42.8014,5.9826,4330,272,186.455,57.111,13.314,36.038,36.618,41.209,4.591,295.4,543.1,291.1
2023-10-09T01:30:08,2420,42.8014,5.9826,4330,272,186.795,57.218,13.317,36.015,36.595,41.190,4.595,295.4,543.1,291.0
2023-10-09T01:33:07,2420,42.8014,5.9826,4330,272,186.666,57.170,13.310,36.027,36.607,41.201,4.594,295.4,543.1,291.2
2023-10-09T01:36:07,2420,42.8014,5.9826,4330,272,186.601,57.148,13.308,36.032,36.612,41.203,4.592,295.4,543.1,291.3
2023-10-09T01:39:07,2420,42.8014,5.9826,4330,272,186.830,57.232,13.319,36.012,36.592,41.186,4.594,295.4,543.1,290.9
2023-10-09T01:42:07,2420,42.8014,5.9826,4330,272,186.647,57.175,13.318,36.024,36.604,41.202,4.598,295.5,543.1,291.0
2023-10-09T01:45:07,2420,42.8014,5.9826,4330,272,186.673,57.176,13.313,36.025,36.605,41.197,4.592,295.5,543.1,291.1
2023-10-09T01:48:07,2420,42.8014,5.9826,4330,272,186.525,57.130,13.312,36.034,36.614,41.211,4.597,295.4,543.1,291.2
2023-10-09T01:51:08,2420,42.8014,5.9826,4330,272,186.533,57.137,13.315,36.032,36.612,41.203,4.590,295.5,543.1,291.0
2023-10-09T01:54:08,2420,42.8014,5.9826,4330,272,186.396,57.105,13.324,36.037,36.617,41.209,4.592,295.4,543.1,290.8
2023-10-09T01:57:08,2420,42.8014,5.9826,4330,272,186.387,57.104,13.324,36.037,36.617,41.210,4.593,295.4,543.1,290.8
2023-10-09T02:00:08,2420,42.8014,5.9826,4330,272,186.429,57.112,13.321,36.037,36.617,41.211,4.594,295.4,543.1,290.9
2023-10-09T02:03:07,2420,42.8014,5.9826,4330,272,186.747,57.199,13.313,36.020,36.600,41.194,4.594,295.5,543.1,291.1
2023-10-09T02:06:07,2420,42.8014,5.9826,4330,272,186.216,57.046,13.320,36.050,36.630,41.218,4.588,295.4,543.1,290.9
2023-10-09T02:09:07,2420,42.8014,5.9826,4330,272,186.549,57.146,13.319,36.030,36.610,41.201,4.591,295.4,543.1,290.9
2023-10-09T02:12:07,2420,42.8014,5.9826,4330,272,186.674,57.184,13.319,36.022,36.602,41.197,4.595,295.4,543.1,290.9
2023-10-09T02:15:07,2420,42.8014,5.9826,4330,272,186.659,57.187,13.324,36.020,36.600,41.194,4.594,295.3,543.1,290.8
2023-10-09T02:18:07,2420,42.8014,5.9826,4330,272,186.974,57.272,13.316,36.003,36.584,41.182,4.598,295.4,543.1,291.0
2023-10-09T02:21:07,2420,42.8014,5.9826,4330,272,186.577,57.145,13.311,36.031,36.611,41.201,4.590,295.4,543.1,291.2
2023-10-09T02:24:07,2420,42.8014,5.9826,4330,272,186.723,57.188,13.310,36.023,36.603,41.198,4.595,295.4,543.2,291.2
2023-10-09T02:27:08,2420,42.8014,5.9826,4330,272,186.385,57.092,13.316,36.042,36.622,41.213,4.591,295.4,543.1,291.0
2023-10-09T02:30:08,2420,42.8014,5.9826,4330,272,186.635,57.164,13.312,36.028,36.608,41.203,4.595,295.5,543.1,291.2
2023-10-09T02:33:07,2420,42.8014,5.9826,4330,272,186.433,57.095,13.306,36.043,36.623,41.211,4.588,295.4,543.1,291.3
2023-10-09T02:36:07,2420,42.8014,5.9826,4330,272,186.421,57.112,13.322,36.036,36.616,41.211,4.595,295.4,543.1,290.8
2023-10-09T02:39:07,2420,42.8014,5.9826,4330,272,186.629,57.165,13.314,36.027,36.607,41.198,4.591,295.3,543.1,291.1
2023-10-09T02:42:07,2420,42.8014,5.9826,4330,272,186.592,57.155,13.315,36.028,36.608,41.199,4.591,295.4,543.2,291.1
2023-10-09T02:45:07,2420,42.8014,5.9826,4330,272,186.611,57.161,13.315,36.027,36.607,41.205,4.597,295.4,543.0,291.1
2023-10-09T02:48:07,2420,42.8014,5.9826,4330,272,186.468,57.110,13.310,36.039,36.619,41.214,4.595,295.4,543.1,291.2
2023-10-09T02:51:07,2420,42.8014,5.9826,4330,272,186.605,57.154,13.311,36.030,36.610,41.205,4.595,295.4,543.1,291.2
2023-10-09T02:54:08,2420,42.8014,5.9826,4330,272,186.522,57.130,13.313,36.034,36.614,41.208,4.594,295.4,543.2,291.1
2023-10-09T02:57:08,2420,42.8014,5.9826,4330,272,186.508,57.131,13.317,36.033,36.613,41.207,4.594,295.4,543.1,291.0
2023-10-09T03:00:08,2420,42.8014,5.9826,4330,272,186.625,57.156,13.309,36.029,36.609,41.200,4.591,295.4,543.1,291.3
2023-10-09T03:03:07,2420,42.8014,5.9826,4330,272,186.594,57.144,13.307,36.033,36.613,41.204,4.591,295.5,543.2,291.3
2023-10-09T03:06:07,2420,42.8014,5.9826,4330,272,186.599,57.155,13.314,36.029,36.609,41.206,4.597,295.4,543.1,291.1
2023-10-09T03:09:07,2420,42.8014,5.9826,4330,272,186.670,57.169,13.308,36.027,36.607,41.198,4.591,295.4,543.2,291.3
2023-10-09T03:12:07,2420,42.8014,5.9826,4330,272,186.628,57.157,13.308,36.030,36.610,41.206,4.597,295.4,543.2,291.3
2023-10-09T03:15:07,2420,42.8014,5.9826,4330,272,186.669,57.173,13.311,36.026,36.606,41.201,4.595,295.3,543.2,291.2
2023-10-09T03:18:07,2420,42.8014,5.9826,4330,272,186.729,57.184,13.305,36.024,36.604,41.200,4.596,295.4,543.1,291.4
2023-10-09T03:21:07,2420,42.8014,5.9826,4330,272,186.751,57.195,13.309,36.022,36.602,41.200,4.598,295.5,543.2,291.3
2023-10-09T03:24:07,2420,42.8014,5.9826,4330,272,186.646,57.169,13.314,36.026,36.606,41.196,4.590,295.4,543.1,291.1
2023-10-09T03:27:07,2420,42.8014,5.9826,4330,272,186.661,57.172,13.312,36.026,36.606,41.198,4.592,295.4,543.1,291.2
2023-10-09T03:30:07,2420,42.8014,5.9826,4330,272,186.414,57.106,13.320,36.038,36.618,41.209,4.591,295.4,543.1,290.9
2023-10-09T03:33:07,2420,42.8014,5.9826,4330,272,186.833,57.236,13.321,36.010,36.590,41.184,4.594,295.2,543.0,290.9
2023-10-09T03:36:07,2420,42.8014,5.9826,4330,272,186.429,57.114,13.323,36.036,36.616,41.208,4.593,295.4,543.1,290.8
2023-10-09T03:39:07,2420,42.8014,5.9826,4330,272,186.451,57.119,13.321,36.035,36.615,41.205,4.590,295.4,543.1,290.9
2023-10-09T03:42:07,2420,42.8014,5.9826,4330,272,186.434,57.121,13.327,36.034,36.614,41.207,4.593,295.4,543.0,290.7
2023-10-09T03:45:07,2420,42.8014,5.9826,4330,272,186.374,57.094,13.320,36.041,36.621,41.215,4.595,295.5,543.1,290.9
2023-10-09T03:48:08,2420,42.8014,5.9826,4330,272,186.352,57.098,13.328,36.038,36.618,41.211,4.594,295.4,543.0,290.6
2023-10-09T03:51:08,2420,42.8014,5.9826,4330,272,186.671,57.188,13.323,36.020,36.600,41.191,4.591,295.5,543.1,290.8
2023-10-09T03:54:08,2420,42.8014,5.9826,4330,272,186.385,57.101,13.323,36.039,36.619,41.208,4.590,295.5,543.1,290.8
2023-10-09T03:57:08,2420,42.8014,5.9826,4330,272,186.498,57.134,13.321,36.032,36.612,41.206,4.594,295.4,543.1,290.9
2023-10-09T04:00:07,2420,42.8014,5.9826,4330,272,186.445,57.113,13.318,36.037,36.617,41.212,4.595,295.5,543.0,291.0
2023-10-09T04:03:07,2420,42.8014,5.9826,4330,272,186.574,57.150,13.316,36.030,36.610,41.205,4.596,295.5,543.1,291.0
2023-10-09T04:06:07,2420,42.8014,5.9826,4330,272,186.499,57.142,13.328,36.028,36.608,41.197,4.588,295.4,543.1,290.6
2023-10-09T04:09:07,2420,42.8014,5.9826,4330,272,186.492,57.129,13.320,36.033,36.613,41.209,4.597,295.4,543.0,290.9
2023-10-09T04:12:08,2420,42.8014,5.9826,4330,272,186.692,57.177,13.309,36.025,36.606,41.203,4.597,295.5,543.1,291.3
2023-10-09T04:15:08,2420,42.8014,5.9826,4330,272,186.577,57.153,13.317,36.029,36.609,41.203,4.594,295.5,543.1,291.0
2023-10-09T04:18:08,2420,42.8014,5.9826,4330,272,186.630,57.157,13.308,36.030,36.610,41.201,4.592,295.5,543.1,291.3
2023-10-09T04:21:08,2420,42.8014,5.9826,4330,272,186.537,57.134,13.312,36.034,36.614,41.204,4.590,295.5,543.1,291.2
2023-10-09T04:24:08,2420,42.8014,5.9826,4330,272,186.495,57.128,13.318,36.033,36.613,41.204,4.591,295.5,543.1,291.0
2023-10-09T04:27:08,2420,42.8014,5.9826,4330,272,186.515,57.134,13.317,36.033,36.613,41.206,4.593,295.4,543.2,291.0
2023-10-09T04:30:07,2420,42.8014,5.9826,4330,272,186.393,57.098,13.319,36.040,36.620,41.208,4.588,295.4,543.1,290.9
2023-10-09T04:33:07,2420,42.8014,5.9826,4330,272,186.490,57.126,13.317,36.035,36.615,41.207,4.592,295.5,543.1,291.0
2023-10-09T04:36:07,2420,42.8014,5.9826,4330,272,186.498,57.119,13.310,36.037,36.617,41.206,4.589,295.5,543.1,291.2
2023-10-09T04:39:08,2420,42.8014,5.9826,4330,272,186.489,57.128,13.319,36.034,36.614,41.205,4.591,295.5,543.1,290.9
2023-10-09T04:42:08,2420,42.8014,5.9826,4330,272,186.566,57.153,13.320,36.028,36.608,41.205,4.597,295.5,543.1,290.9
2023-10-09T04:45:08,2420,42.8014,5.9826,4330,272,186.289,57.061,13.315,36.049,36.629,41.225,4.596,295.5,543.0,291.1
2023-10-09T04:48:08,2420,42.8014,5.9826,4330,272,186.290,57.061,13.314,36.049,36.629,41.216,4.587,295.5,543.2,291.1
2023-10-09T04:51:08,2420,42.8014,5.9826,4330,272,186.476,57.113,13.311,36.039,36.619,41.208,4.590,295.5,543.1,291.2
2023-10-09T04:54:08,2420,42.8014,5.9826,4330,272,186.575,57.157,13.321,36.027,36.607,41.198,4.591,295.5,543.1,290.9
2023-10-09T04:57:07,2420,42.8014,5.9826,4330,272,186.362,57.084,13.315,36.043,36.623,41.212,4.589,295.4,543.1,291.0
2023-10-09T05:00:07,2420,42.8014,5.9826,4330,272,186.630,57.161,13.311,36.028,36.608,41.202,4.594,295.5,543.1,291.2
2023-10-09T05:03:07,2420,42.8014,5.9826,4330,272,186.474,57.119,13.315,36.036,36.616,41.209,4.593,295.5,543.1,291.1
2023-10-09T05:06:07,2420,42.8014,5.9826,4330,272,186.720,57.193,13.315,36.021,36.601,41.199,4.599,295.4,543.2,291.1
2023-10-09T05:09:07,2420,42.8014,5.9826,4330,272,186.695,57.191,13.319,36.021,36.601,41.196,4.595,295.4,543.1,290.9
2023-10-09T05:12:07,2420,42.8014,5.9826,4330,272,186.547,57.137,13.312,36.033,36.613,41.206,4.593,295.4,543.1,291.2
2023-10-09T05:15:07,2420,42.8014,5.9826,4330,272,186.315,57.061,13.308,36.050,36.630,41.219,4.589,295.5,543.2,291.3
2023-10-09T05:18:07,2420,42.8014,5.9826,4330,272,186.450,57.103,13.309,36.041,36.621,41.210,4.589,295.4,543.2,291.3
2023-10-09T05:21:07,2420,42.8014,5.9826,4330,272,186.725,57.186,13.308,36.024,36.604,41.196,4.592,295.4,543.1,291.3
2023-10-09T05:24:07,2420,42.8014,5.9826,4330,272,186.505,57.120,13.309,36.037,36.617,41.209,4.591,295.4,543.2,291.3
2023-10-09T05:27:07,2420,42.8014,5.9826,4330,272,186.709,57.182,13.309,36.024,36.605,41.200,4.595,295.5,543.2,291.3
2023-10-09T05:30:08,2420,42.8014,5.9826,4330,272,186.771,57.201,13.308,36.020,36.600,41.197,4.596,295.4,543.1,291.3
2023-10-09T05:33:07,2420,42.8014,5.9826,4330,272,186.670,57.183,13.318,36.022,36.602,41.195,4.593,295.5,543.1,290.9
2023-10-09T05:36:07,2420,42.8014,5.9826,4330,272,186.621,57.161,13.313,36.028,36.608,41.204,4.596,295.4,543.1,291.1
2023-10-09T05:39:07,2420,42.8014,5.9826,4330,272,186.642,57.160,13.308,36.029,36.609,41.199,4.590,295.4,543.2,291.3
2023-10-09T05:42:07,2420,42.8014,5.9826,4330,272,186.665,57.172,13.312,36.026,36.606,41.199,4.593,295.4,543.2,291.2
2023-10-09T05:45:07,2420,42.8014,5.9826,4330,272,186.774,57.198,13.306,36.022,36.602,41.197,4.595,295.5,543.1,291.4
2023-10-09T05:48:07,2420,42.8014,5.9826,4330,272,186.465,57.107,13.309,36.040,36.620,41.213,4.593,295.4,543.1,291.3
2023-10-09T05:51:07,2420,42.8014,5.9826,4330,272,186.729,57.187,13.308,36.023,36.603,41.194,4.590,295.4,543.1,291.3
2023-10-09T05:54:08,2420,42.8014,5.9826,4330,272,186.556,57.139,13.311,36.033,36.613,41.207,4.594,295.4,543.2,291.2
2023-10-09T05:57:08,2420,42.8014,5.9826,4330,272,186.772,57.197,13.305,36.022,36.602,41.195,4.593,295.4,543.2,291.4
2023-10-09T06:00:08,2420,42.8014,5.9826,4330,272,186.607,57.150,13.308,36.031,36.611,41.198,4.587,295.4,543.1,291.3
2023-10-09T06:03:07,2420,42.8014,5.9826,4330,272,186.620,57.155,13.309,36.030,36.610,41.201,4.591,295.3,543.1,291.3
2023-10-09T06:06:07,2420,42.8014,5.9826,4330,272,186.891,57.236,13.307,36.013,36.593,41.190,4.597,295.4,543.1,291.3
2023-10-09T06:09:07,2420,42.8014,5.9826,4330,272,186.562,57.136,13.308,36.034,36.615,41.207,4.592,295.4,543.2,291.3
2023-10-09T06:12:07,2420,42.8014,5.9826,4330,272,186.859,57.225,13.306,36.016,36.596,41.192,4.596,295.3,543.2,291.4
2023-10-09T06:15:07,2420,42.8014,5.9826,4330,272,186.705,57.183,13.311,36.023,36.604,41.200,4.597,295.4,543.2,291.2
2023-10-09T06:18:07,2420,42.8014,5.9826,4330,272,186.408,57.091,13.309,36.043,36.623,41.218,4.594,295.4,543.2,291.2
2023-10-09T06:21:07,2420,42.8014,5.9826,4330,272,186.757,57.195,13.307,36.022,36.602,41.192,4.590,295.3,543.1,291.3
2023-10-09T06:24:07,2420,42.8014,5.9826,4330,272,186.520,57.124,13.309,36.037,36.617,41.209,4.592,295.4,543.2,291.3
2023-10-09T06:27:07,2420,42.8014,5.9826,4330,272,186.775,57.199,13.306,36.021,36.601,41.193,4.591,295.4,543.2,291.4
2023-10-09T06:30:08,2420,42.8014,5.9826,4330,272,186.595,57.148,13.310,36.031,36.611,41.205,4.594,295.4,543.1,291.2
2023-10-09T06:33:07,2420,42.8014,5.9826,4330,272,186.745,57.194,13.309,36.022,36.602,41.194,4.593,295.3,543.1,291.3
2023-10-09T06:36:07,2420,42.8014,5.9826,4330,272,186.663,57.165,13.306,36.029,36.609,41.198,4.589,295.3,543.2,291.4
2023-10-09T06:39:07,2420,42.8014,5.9826,4330,272,186.640,57.161,13.309,36.029,36.609,41.200,4.591,295.4,543.1,291.3
2023-10-09T06:42:08,2420,42.8014,5.9826,4330,272,186.829,57.216,13.307,36.018,36.598,41.192,4.594,295.4,543.2,291.3
2023-10-09T06:45:08,2420,42.8014,5.9826,4330,272,186.803,57.210,13.308,36.019,36.599,41.190,4.591,295.4,543.2,291.3
2023-10-09T06:48:08,2420,42.8014,5.9826,4330,272,186.677,57.168,13.305,36.028,36.608,41.205,4.596,295.4,543.2,291.4
2023-10-09T06:51:08,2420,42.8014,5.9826,4330,272,186.619,57.156,13.310,36.029,36.610,41.202,4.592,295.3,543.1,291.2
2023-10-09T06:54:08,2420,42.8014,5.9826,4330,272,186.869,57.240,13.315,36.011,36.591,41.188,4.597,295.4,543.2,291.0
2023-10-09T06:57:08,2420,42.8014,5.9826,4330,272,186.776,57.200,13.306,36.021,36.601,41.196,4.595,295.4,543.2,291.3
2023-10-09T07:00:08,2420,42.8014,5.9826,4330,272,186.520,57.125,13.310,36.036,36.616,41.212,4.596,295.4,543.2,291.2
2023-10-09T07:03:07,2420,42.8014,5.9826,4330,272,186.742,57.188,13.305,36.024,36.604,41.199,4.595,295.4,543.1,291.4
2023-10-09T07:06:07,2420,42.8014,5.9826,4330,272,186.913,57.239,13.305,36.013,36.594,41.185,4.592,295.4,543.2,291.4
2023-10-09T07:09:07,2420,42.8014,5.9826,4330,272,186.683,57.173,13.308,36.026,36.606,41.200,4.593,295.4,543.2,291.3
2023-10-09T07:12:07,2420,42.8014,5.9826,4330,272,186.872,57.229,13.306,36.015,36.596,41.188,4.592,295.3,543.2,291.4
2023-10-09T07:15:07,2420,42.8014,5.9826,4330,272,186.639,57.155,13.304,36.030,36.611,41.199,4.589,295.3,543.2,291.4
2023-10-09T07:18:07,2420,42.8014,5.9826,4330,272,186.625,57.150,13.304,36.032,36.612,41.210,4.597,295.4,543.2,291.4
2023-10-09T07:21:07,2420,42.8014,5.9826,4330,272,186.648,57.157,13.303,36.031,36.611,41.200,4.589,295.4,543.2,291.4
2023-10-09T07:24:07,2420,42.8014,5.9826,4330,272,186.638,57.157,13.306,36.030,36.610,41.202,4.592,295.3,543.1,291.4
2023-10-09T07:27:08,2420,42.8014,5.9826,4330,272,186.914,57.241,13.305,36.013,36.593,41.188,4.595,295.3,543.1,291.4
2023-10-09T07:30:08,2420,42.8014,5.9826,4330,272,186.876,57.229,13.305,36.015,36.595,41.183,4.588,295.4,543.1,291.4
2023-10-09T07:33:07,2420,42.8014,5.9826,4330,272,186.747,57.194,13.309,36.022,36.602,41.193,4.591,295.4,543.1,291.3
2023-10-09T07:36:07,2420,42.8014,5.9826,4330,272,186.835,57.222,13.310,36.016,36.596,41.188,4.592,295.4,543.1,291.2
2023-10-09T07:39:07,2420,42.8014,5.9826,4330,272,186.833,57.218,13.307,36.017,36.598,41.192,4.594,295.4,543.2,291.3
2023-10-09T07:42:07,2420,42.8014,5.9826,4330,272,187.015,57.273,13.306,36.006,36.586,41.182,4.596,295.4,543.1,291.4
2023-10-09T07:45:07,2420,42.8014,5.9826,4330,272,186.500,57.118,13.309,36.038,36.618,41.208,4.591,295.4,543.1,291.3
2023-10-09T07:48:07,2420,42.8014,5.9826,4330,272,186.793,57.206,13.307,36.020,36.600,41.191,4.592,295.4,543.1,291.3
2023-10-09T07:51:08,2420,42.8014,5.9826,4330,272,186.589,57.145,13.308,36.032,36.612,41.201,4.589,295.4,543.1,291.3
2023-10-09T07:54:08,2420,42.8014,5.9826,4330,272,186.721,57.183,13.306,36.025,36.605,41.199,4.594,295.4,543.2,291.4
2023-10-09T07:57:08,2420,42.8014,5.9826,4330,272,186.789,57.203,13.305,36.020,36.601,41.196,4.596,295.4,543.2,291.4
2023-10-09T08:00:08,2420,42.8014,5.9826,4330,272,186.936,57.251,13.308,36.009,36.590,41.186,4.596,295.3,543.1,291.3
2023-10-09T08:03:07,2420,42.8014,5.9826,4330,272,186.762,57.196,13.307,36.022,36.602,41.199,4.597,295.4,543.2,291.3
2023-10-09T08:06:07,2420,42.8014,5.9826,4330,272,186.746,57.191,13.307,36.023,36.603,41.196,4.593,295.3,543.1,291.3
2023-10-09T08:09:07,2420,42.8014,5.9826,4330,272,186.603,57.150,13.309,36.031,36.611,41.202,4.590,295.4,543.1,291.3
2023-10-09T08:12:07,2420,42.8014,5.9826,4330,272,186.698,57.179,13.308,36.025,36.605,41.197,4.592,295.4,543.1,291.3
2023-10-09T08:15:07,2420,42.8014,5.9826,4330,272,186.601,57.148,13.308,36.032,36.612,41.207,4.595,295.4,543.2,291.3
2023-10-09T08:18:07,2420,42.8014,5.9826,4330,272,186.726,57.184,13.306,36.024,36.605,41.202,4.597,295.4,543.1,291.4
2023-10-09T08:21:08,2420,42.8014,5.9826,4330,272,186.627,57.152,13.305,36.031,36.612,41.199,4.588,295.3,543.1,291.4
2023-10-09T08:24:08,2420,42.8014,5.9826,4330,272,186.800,57.206,13.306,36.020,36.600,41.195,4.595,295.4,543.2,291.4
2023-10-09T08:27:08,2420,42.8014,5.9826,4330,272,186.839,57.221,13.308,36.016,36.596,41.192,4.596,295.4,543.1,291.3
2023-10-09T08:30:08,2420,42.8014,5.9826,4330,272,186.669,57.164,13.304,36.029,36.609,41.202,4.593,295.4,543.1,291.4
2023-10-09T08:33:07,2420,42.8014,5.9826,4330,272,186.855,57.220,13.303,36.017,36.597,41.193,4.596,295.3,543.2,291.4
2023-10-09T08:36:07,2420,42.8014,5.9826,4330,272,186.675,57.169,13.307,36.027,36.608,41.198,4.591,295.4,543.2,291.3
2023-10-09T08:39:07,2420,42.8014,5.9826,4330,272,187.022,57.276,13.307,36.005,36.585,41.181,4.595,295.4,543.1,291.3
2023-10-09T08:42:07,2420,42.8014,5.9826,4330,272,186.786,57.202,13.305,36.021,36.601,41.194,4.593,295.4,543.2,291.4
2023-10-09T08:45:07,2420,42.8014,5.9826,4330,272,186.885,57.231,13.305,36.015,36.595,41.186,4.591,295.4,543.1,291.4
2023-10-09T08:48:07,2420,42.8014,5.9826,4330,272,186.768,57.197,13.306,36.022,36.602,41.192,4.590,295.4,543.2,291.4
2023-10-09T08:51:07,2420,42.8014,5.9826,4330,272,187.053,57.283,13.305,36.003,36.584,41.180,4.596,295.3,543.1,291.4
2023-10-09T08:54:07,2420,42.8014,5.9826,4330,272,186.543,57.131,13.309,36.035,36.615,41.207,4.592,295.3,543.1,291.3
2023-10-09T08:57:07,2420,42.8014,5.9826,4330,272,186.699,57.181,13.310,36.025,36.605,41.199,4.594,295.4,543.2,291.2
2023-10-09T09:00:08,2420,42.8014,5.9826,4330,272,186.726,57.185,13.307,36.024,36.604,41.197,4.593,295.4,543.2,291.3
2023-10-09T09:03:07,2420,42.8014,5.9826,4330,272,186.647,57.158,13.304,36.031,36.611,41.207,4.596,295.4,543.2,291.4
2023-10-09T09:06:07,2420,42.8014,5.9826,4330,272,186.480,57.106,13.304,36.041,36.621,41.211,4.590,295.4,543.2,291.4
2023-10-09T09:09:07,2420,42.8014,5.9826,4330,272,186.721,57.182,13.306,36.025,36.605,41.194,4.588,295.3,543.1,291.4
2023-10-09T09:12:08,2420,42.8014,5.9826,4330,272,186.680,57.171,13.307,36.026,36.607,41.201,4.594,295.4,543.1,291.3
2023-10-09T09:15:08,2420,42.8014,5.9826,4330,272,186.917,57.245,13.308,36.011,36.591,41.184,4.593,295.4,543.1,291.3
2023-10-09T09:18:08,2420,42.8014,5.9826,4330,272,186.876,57.232,13.308,36.014,36.594,41.188,4.593,295.4,543.1,291.3
2023-10-09T09:21:08,2420,42.8014,5.9826,4330,272,186.686,57.173,13.307,36.027,36.607,41.201,4.594,295.4,543.2,291.3
2023-10-09T09:24:08,2420,42.8014,5.9826,4330,272,186.834,57.214,13.304,36.019,36.599,41.196,4.597,295.3,543.1,291.4
2023-10-09T09:27:08,2420,42.8014,5.9826,4330,272,186.923,57.247,13.308,36.010,36.591,41.182,4.591,295.3,543.2,291.3
2023-10-09T09:30:07,2420,42.8014,5.9826,4330,272,186.758,57.191,13.304,36.024,36.604,41.202,4.598,295.4,543.2,291.4
2023-10-09T09:33:07,2420,42.8014,5.9826,4330,272,186.759,57.194,13.306,36.022,36.602,41.190,4.588,295.4,543.1,291.4
2023-10-09T09:36:07,2420,42.8014,5.9826,4330,272,186.738,57.190,13.308,36.023,36.603,41.195,4.592,295.4,543.2,291.3
2023-10-09T09:39:07,2420,42.8014,5.9826,4330,272,186.667,57.167,13.307,36.028,36.608,41.200,4.593,295.3,543.1,291.3
2023-10-09T09:42:07,2420,42.8014,5.9826,4330,272,186.699,57.177,13.307,36.025,36.606,41.199,4.593,295.4,543.2,291.3
2023-10-09T09:45:08,2420,42.8014,5.9826,4330,272,186.809,57.209,13.306,36.019,36.600,41.196,4.597,295.3,543.1,291.4
2023-10-09T09:48:08,2420,42.8014,5.9826,4330,272,186.828,57.215,13.306,36.018,36.598,41.196,4.598,295.3,543.2,291.4
2023-10-09T09:51:08,2420,42.8014,5.9826,4330,272,186.641,57.164,13.311,36.028,36.608,41.202,4.595,295.3,543.1,291.2
2023-10-09T09:54:08,2420,42.8014,5.9826,4330,272,186.685,57.175,13.309,36.026,36.606,41.197,4.591,295.4,543.1,291.3
2023-10-09T09:57:08,2420,42.8014,5.9826,4330,272,186.720,57.183,13.306,36.025,36.605,41.198,4.593,295.4,543.2,291.3
2023-10-09T10:00:07,2420,42.8014,5.9826,4330,272,186.760,57.201,13.311,36.020,36.600,41.198,4.598,295.4,543.2,291.2